Temp
-26 -26 -26 -27 -27 -27 -27 -27 -27 -27 -27 -27 -27 -27 -27 -27 -27 -27 -27 -27 -28 -28 -28 -28 -28 -29 -29 -28 -28 -28 -28 -28 -28 -27 -27 -27 -26 -26 -26 -25 -25 -25 -24 -24 -24 -23 -23 -23 -23 -22 -22 -22 -22 -22 -22 -21 -21 -20 -18 -19 -19 -18 -18 -18 -18 -18 -17 -16 -16 -15 -15 -15 -15 -14
-27 -27 -27 -27 -27 -27 -27 -27 -27 -27 -27 -27 -27 -27 -27 -27 -27 -27 -27 -28 -28 -29 -29 -29 -29 -29 -29 -29 -29 -29 -28 -28 -28 -27 -27 -27 -26 -26 -26 -26 -25 -25 -24 -24 -24 -23 -23 -23 -23 -22 -22 -22 -22 -22 -23 -22 -22 -21 -20 -21 -21 -20 -20 -20 -19 -18 -17 -16 -16 -15 -15 -15 -15 -15
-27 -27 -27 -27 -27 -27 -27 -27 -27 -27 -27 -27 -27 -27 -27 -27 -28 -28 -28 -28 -29 -29 -29 -29 -29 -29 -29 -29 -29 -29 -28 -28 -28 -28 -27 -27 -27 -26 -26 -26 -25 -25 -25 -24 -24 -23 -23 -23 -23 -22 -22 -22 -22 -23 -24 -24 -23 -23 -22 -22 -22 -22 -22 -21 -20 -19 -17 -16 -16 -15 -15 -15 -15 -15
-28 -28 -27 -27 -27 -27 -27 -27 -27 -27 -27 -27 -27 -27 -28 -28 -28 -28 -29 -29 -29 -30 -30 -29 -29 -29 -29 -29 -29 -29 -28 -28 -28 -28 -27 -27 -27 -26 -26 -26 -26 -25 -25 -25 -24 -24 -23 -23 -23 -22 -22 -22 -23 -24 -25 -24 -24 -24 -23 -23 -23 -22 -22 -22 -21 -19 -17 -16 -16 -16 -16 -15 -16 -16
-29 -28 -28 -28 -28 -27 -27 -28 -27 -27 -27 -27 -27 -28 -28 -28 -28 -29 -29 -29 -29 -30 -30 -30 -30 -30 -29 -29 -29 -29 -28 -28 -28 -28 -27 -27 -27 -26 -26 -26 -26 -26 -25 -25 -24 -24 -23 -23 -23 -23 -23 -23 -23 -24 -25 -24 -24 -24 -23 -23 -23 -22 -22 -22 -21 -19 -17 -17 -16 -17 -17 -16 -16 -16
-29 -29 -28 -28 -28 -28 -28 -28 -28 -28 -28 -28 -28 -28 -28 -28 -29 -29 -30 -29 -29 -30 -30 -30 -30 -30 -30 -30 -29 -29 -29 -28 -28 -28 -28 -27 -27 -27 -26 -26 -26 -26 -26 -25 -25 -24 -23 -23 -23 -23 -23 -23 -24 -25 -24 -24 -24 -24 -23 -23 -23 -22 -21 -21 -20 -19 -18 -18 -17 -17 -18 -16 -16 -16
-30 -29 -29 -28 -28 -28 -28 -28 -28 -28 -28 -28 -28 -28 -28 -29 -29 -30 -30 -30 -29 -30 -30 -30 -30 -30 -30 -30 -30 -29 -29 -28 -28 -28 -28 -27 -27 -27 -27 -27 -27 -26 -26 -25 -25 -24 -24 -23 -23 -23 -23 -23 -24 -24 -24 -24 -24 -24 -23 -23 -23 -22 -21 -21 -20 -19 -19 -19 -18 -17 -18 -16 -15 -16
-30 -30 -29 -29 -29 -28 -28 -28 -28 -28 -28 -28 -28 -28 -29 -29 -30 -30 -30 -30 -30 -30 -30 -30 -30 -30 -30 -30 -30 -30 -29 -29 -28 -28 -28 -28 -27 -27 -27 -27 -27 -27 -26 -26 -25 -25 -24 -24 -24 -24 -23 -23 -24 -24 -24 -24 -24 -24 -23 -23 -22 -22 -21 -21 -20 -19 -19 -19 -18 -17 -17 -16 -16 -16
-31 -30 -30 -29 -29 -29 -28 -28 -28 -28 -28 -28 -28 -28 -29 -30 -30 -30 -30 -30 -30 -30 -30 -30 -30 -30 -30 -30 -30 -30 -29 -29 -28 -28 -28 -28 -27 -27 -27 -27 -27 -27 -26 -26 -25 -25 -25 -24 -24 -25 -24 -24 -24 -24 -24 -24 -24 -24 -23 -23 -23 -22 -22 -21 -20 -20 -20 -19 -17 -17 -16 -16 -16 -16
-31 -30 -30 -30 -29 -29 -29 -28 -28 -28 -28 -28 -28 -29 -29 -30 -30 -30 -30 -30 -30 -30 -30 -30 -30 -31 -31 -30 -30 -30 -29 -29 -29 -28 -28 -28 -28 -28 -28 -28 -27 -27 -26 -26 -26 -26 -26 -25 -25 -25 -24 -24 -24 -24 -24 -24 -23 -23 -23 -23 -23 -22 -21 -21 -20 -20 -19 -19 -18 -17 -17 -17 -17 -16
-31 -30 -30 -30 -29 -29 -29 -29 -28 -28 -28 -28 -28 -29 -29 -30 -30 -30 -30 -30 -30 -30 -30 -30 -30 -31 -31 -30 -30 -30 -30 -29 -29 -28 -28 -28 -28 -28 -28 -28 -27 -27 -27 -26 -26 -26 -26 -26 -26 -25 -25 -24 -24 -24 -24 -24 -24 -23 -23 -23 -23 -22 -21 -21 -20 -20 -19 -19 -19 -18 -18 -17 -17 -17
-31 -31 -30 -30 -30 -29 -29 -29 -29 -28 -28 -29 -29 -29 -29 -30 -30 -31 -31 -31 -30 -31 -31 -31 -31 -31 -31 -31 -30 -30 -30 -29 -29 -29 -29 -29 -28 -28 -28 -28 -27 -27 -27 -27 -27 -27 -27 -26 -26 -26 -25 -24 -24 -24 -24 -24 -24 -24 -23 -22 -22 -22 -21 -21 -20 -20 -19 -19 -19 -18 -18 -18 -18 -18
-31 -31 -31 -30 -30 -30 -30 -29 -29 -29 -29 -29 -29 -29 -30 -30 -30 -31 -31 -31 -31 -31 -31 -31 -31 -31 -31 -31 -30 -30 -30 -29 -29 -29 -29 -29 -28 -28 -28 -28 -27 -27 -28 -27 -27 -27 -27 -27 -27 -27 -26 -25 -24 -24 -24 -23 -24 -24 -23 -22 -22 -22 -21 -21 -21 -20 -20 -19 -19 -18 -18 -19 -19 -18
-31 -31 -31 -31 -30 -30 -30 -30 -29 -29 -29 -29 -29 -29 -30 -30 -31 -31 -31 -31 -31 -31 -31 -31 -31 -31 -31 -31 -31 -30 -30 -30 -29 -29 -29 -29 -29 -28 -28 -28 -28 -28 -28 -28 -27 -28 -28 -28 -28 -27 -26 -25 -25 -24 -24 -24 -24 -24 -23 -23 -22 -22 -21 -21 -21 -21 -20 -20 -20 -19 -19 -19 -19 -18
-31 -31 -31 -31 -31 -31 -30 -30 -29 -29 -29 -29 -29 -29 -29 -30 -31 -31 -31 -31 -31 -31 -31 -31 -31 -31 -31 -31 -31 -30 -30 -30 -30 -30 -29 -29 -29 -29 -28 -28 -28 -29 -28 -28 -28 -29 -29 -28 -28 -28 -27 -26 -25 -25 -24 -24 -24 -24 -23 -23 -23 -22 -21 -21 -21 -21 -20 -21 -20 -19 -19 -19 -19 -18
-32 -31 -31 -31 -31 -31 -30 -30 -30 -29 -29 -29 -29 -29 -29 -30 -30 -31 -31 -31 -31 -31 -31 -31 -31 -32 -32 -31 -31 -31 -30 -30 -30 -30 -30 -29 -29 -29 -28 -28 -29 -29 -29 -28 -29 -29 -29 -29 -28 -28 -27 -26 -25 -25 -24 -24 -24 -24 -23 -23 -23 -23 -22 -22 -21 -21 -20 -20 -19 -19 -19 -19 -19 -18
-32 -31 -31 -31 -31 -31 -31 -30 -30 -30 -29 -29 -29 -29 -29 -30 -30 -31 -31 -31 -31 -31 -31 -31 -31 -32 -32 -31 -31 -31 -31 -31 -30 -30 -30 -30 -29 -29 -29 -29 -29 -30 -29 -29 -29 -30 -30 -29 -29 -28 -27 -26 -25 -25 -25 -24 -24 -24 -23 -23 -23 -23 -23 -22 -22 -21 -21 -20 -19 -20 -20 -20 -19 -18
-32 -31 -31 -31 -31 -31 -31 -31 -30 -30 -30 -29 -29 -29 -30 -30 -30 -31 -31 -31 -31 -31 -31 -31 -31 -32 -32 -31 -31 -31 -31 -31 -30 -30 -30 -30 -30 -29 -29 -30 -30 -30 -29 -30 -30 -30 -30 -30 -29 -29 -27 -26 -25 -25 -25 -24 -24 -24 -24 -24 -23 -23 -23 -23 -22 -22 -21 -21 -20 -20 -21 -20 -19 -19
-32 -31 -31 -31 -31 -31 -31 -31 -30 -30 -30 -30 -30 -29 -30 -30 -30 -31 -31 -31 -31 -31 -31 -31 -31 -32 -32 -32 -31 -31 -31 -31 -31 -31 -30 -30 -30 -30 -30 -30 -30 -30 -30 -30 -30 -30 -30 -30 -30 -29 -28 -26 -25 -25 -25 -24 -24 -24 -24 -24 -24 -24 -24 -23 -23 -22 -22 -21 -21 -21 -21 -20 -20 -19
-32 -32 -31 -31 -31 -31 -31 -31 -30 -30 -30 -30 -30 -30 -30 -30 -30 -31 -31 -31 -31 -31 -31 -31 -31 -32 -32 -32 -31 -31 -31 -31 -31 -31 -31 -30 -30 -30 -30 -30 -30 -30 -30 -31 -31 -31 -31 -30 -30 -29 -28 -26 -26 -25 -25 -24 -24 -24 -24 -24 -24 -24 -24 -23 -23 -22 -22 -21 -21 -21 -21 -21 -20 -19
-32 -32 -32 -31 -31 -31 -31 -31 -31 -30 -30 -30 -30 -30 -30 -30 -30 -31 -31 -31 -31 -31 -31 -31 -31 -32 -32 -32 -32 -32 -31 -31 -31 -31 -31 -31 -30 -30 -30 -30 -30 -31 -31 -31 -31 -31 -31 -31 -30 -30 -29 -27 -26 -25 -25 -24 -24 -24 -24 -24 -24 -24 -24 -24 -23 -23 -22 -22 -21 -21 -21 -21 -20 -20
-32 -32 -32 -32 -32 -31 -31 -31 -31 -30 -30 -30 -30 -30 -30 -30 -31 -31 -31 -31 -31 -31 -31 -31 -32 -32 -32 -32 -32 -32 -32 -32 -31 -31 -31 -31 -31 -31 -31 -31 -31 -31 -31 -31 -32 -31 -31 -31 -30 -30 -29 -28 -26 -25 -25 -25 -24 -24 -24 -24 -24 -24 -24 -24 -23 -23 -22 -22 -22 -21 -21 -21 -21 -20
-32 -32 -32 -32 -32 -32 -31 -31 -31 -30 -30 -30 -30 -30 -30 -30 -31 -32 -31 -31 -31 -31 -31 -31 -32 -32 -32 -32 -32 -32 -32 -32 -32 -32 -31 -31 -31 -31 -31 -31 -31 -31 -31 -32 -32 -32 -31 -31 -31 -30 -29 -28 -27 -26 -25 -25 -24 -24 -24 -24 -24 -24 -24 -24 -24 -23 -23 -23 -22 -22 -21 -21 -21 -21
-32 -32 -32 -32 -32 -32 -32 -31 -31 -31 -30 -30 -30 -30 -30 -31 -32 -32 -31 -31 -31 -31 -32 -32 -32 -32 -32 -32 -32 -32 -32 -32 -32 -32 -32 -31 -31 -31 -31 -31 -31 -32 -32 -32 -32 -32 -31 -31 -31 -30 -30 -29 -27 -26 -26 -25 -25 -24 -24 -24 -24 -24 -24 -24 -24 -24 -23 -23 -22 -22 -21 -21 -21 -21
-32 -32 -32 -32 -32 -32 -32 -31 -31 -31 -30 -30 -30 -30 -31 -31 -31 -31 -31 -31 -31 -32 -32 -32 -32 -32 -33 -32 -32 -32 -32 -32 -32 -32 -32 -31 -31 -31 -31 -31 -32 -32 -32 -32 -32 -31 -31 -31 -31 -31 -30 -29 -28 -27 -26 -26 -25 -24 -24 -24 -24 -24 -24 -24 -24 -24 -24 -23 -23 -22 -22 -21 -21 -21
-32 -33 -32 -32 -32 -32 -32 -31 -31 -31 -30 -30 -30 -30 -31 -31 -31 -31 -31 -32 -32 -32 -32 -32 -32 -32 -33 -33 -32 -32 -32 -32 -32 -32 -32 -32 -32 -31 -32 -32 -32 -32 -32 -31 -31 -31 -31 -31 -31 -31 -30 -30 -29 -28 -27 -26 -26 -25 -24 -24 -24 -24 -24 -24 -24 -24 -24 -23 -23 -22 -22 -22 -21 -21
-32 -33 -32 -32 -32 -32 -31 -31 -31 -31 -30 -30 -30 -31 -31 -31 -31 -31 -32 -32 -32 -32 -32 -32 -32 -33 -33 -33 -32 -32 -32 -32 -32 -32 -32 -32 -32 -32 -32 -32 -32 -31 -31 -31 -31 -31 -31 -31 -31 -31 -31 -30 -30 -29 -28 -27 -26 -26 -25 -24 -24 -24 -24 -24 -24 -24 -24 -23 -23 -23 -22 -22 -22 -22
-33 -32 -32 -32 -32 -32 -31 -31 -31 -31 -31 -30 -31 -31 -31 -31 -31 -31 -32 -32 -32 -32 -32 -32 -33 -33 -33 -33 -32 -32 -32 -32 -32 -32 -32 -32 -32 -32 -32 -32 -32 -31 -31 -31 -31 -31 -31 -31 -31 -31 -31 -30 -30 -30 -29 -28 -27 -26 -25 -25 -24 -24 -24 -24 -24 -24 -24 -24 -23 -23 -23 -22 -22 -22
-33 -32 -32 -32 -32 -32 -31 -31 -31 -31 -31 -31 -31 -31 -31 -31 -31 -32 -32 -32 -32 -32 -33 -33 -33 -33 -33 -33 -32 -32 -32 -32 -32 -32 -32 -32 -32 -32 -32 -32 -32 -31 -31 -31 -31 -31 -31 -31 -31 -31 -31 -31 -30 -30 -29 -28 -27 -26 -25 -25 -24 -24 -24 -24 -24 -24 -24 -24 -24 -24 -23 -23 -22 -22
-33 -32 -32 -32 -32 -32 -31 -31 -31 -31 -31 -31 -31 -31 -31 -31 -31 -32 -32 -32 -32 -33 -33 -33 -33 -33 -33 -33 -32 -32 -33 -33 -33 -32 -32 -32 -32 -32 -32 -32 -31 -31 -31 -31 -31 -31 -31 -31 -31 -31 -31 -31 -31 -30 -30 -29 -28 -26 -25 -25 -24 -24 -23 -23 -24 -24 -24 -24 -24 -24 -24 -23 -23 -23
-33 -33 -32 -32 -32 -32 -31 -31 -31 -31 -31 -31 -31 -31 -31 -31 -32 -32 -32 -32 -33 -33 -33 -33 -33 -33 -33 -33 -33 -33 -33 -33 -33 -32 -32 -32 -32 -32 -32 -32 -31 -31 -31 -31 -31 -31 -31 -31 -31 -31 -31 -31 -31 -31 -30 -30 -29 -27 -26 -25 -24 -24 -24 -23 -23 -23 -24 -24 -24 -24 -24 -24 -24 -23
-33 -33 -33 -32 -32 -32 -32 -31 -31 -31 -31 -31 -31 -31 -31 -31 -32 -33 -33 -33 -33 -33 -33 -33 -33 -33 -33 -33 -33 -33 -33 -33 -33 -33 -32 -32 -32 -32 -32 -32 -32 -31 -31 -31 -31 -31 -31 -31 -31 -31 -31 -31 -31 -31 -31 -30 -30 -28 -27 -25 -25 -24 -24 -23 -23 -23 -23 -23 -24 -24 -24 -24 -24 -24
-33 -33 -33 -33 -32 -32 -32 -32 -32 -31 -31 -31 -31 -32 -32 -32 -33 -33 -33 -33 -33 -33 -33 -33 -33 -33 -33 -33 -33 -33 -33 -33 -33 -33 -33 -32 -32 -32 -32 -32 -32 -32 -31 -31 -31 -31 -31 -31 -31 -31 -31 -31 -31 -31 -30 -30 -30 -29 -28 -27 -26 -25 -24 -24 -23 -23 -23 -23 -23 -23 -24 -24 -24 -24
-33 -33 -33 -33 -32 -32 -32 -32 -32 -31 -31 -31 -32 -32 -32 -33 -33 -33 -33 -33 -34 -34 -34 -34 -33 -34 -34 -34 -34 -34 -33 -33 -33 -33 -33 -33 -33 -32 -32 -32 -32 -32 -32 -31 -31 -31 -31 -31 -31 -31 -31 -31 -31 -31 -30 -30 -30 -30 -29 -28 -27 -26 -25 -24 -24 -23 -23 -23 -23 -23 -23 -23 -24 -24
-33 -33 -33 -33 -33 -32 -32 -32 -32 -32 -32 -32 -32 -33 -33 -33 -33 -33 -33 -34 -34 -34 -34 -34 -34 -34 -34 -34 -34 -34 -33 -33 -33 -33 -33 -33 -33 -33 -32 -32 -32 -32 -32 -32 -31 -31 -31 -31 -31 -31 -31 -31 -31 -31 -30 -30 -30 -30 -30 -29 -28 -27 -26 -25 -24 -24 -23 -23 -23 -23 -23 -23 -23 -23
-33 -33 -33 -33 -33 -32 -32 -32 -32 -32 -32 -32 -33 -33 -33 -34 -34 -34 -34 -34 -34 -34 -34 -34 -34 -34 -34 -34 -34 -34 -33 -33 -33 -33 -33 -33 -33 -33 -32 -32 -32 -32 -32 -32 -32 -31 -31 -31 -31 -31 -31 -31 -31 -31 -30 -30 -30 -30 -30 -30 -29 -29 -28 -27 -26 -25 -24 -24 -23 -23 -23 -23 -23 -23
-34 -33 -33 -33 -33 -32 -32 -32 -32 -32 -33 -33 -33 -33 -34 -34 -34 -34 -34 -34 -34 -34 -34 -34 -34 -34 -34 -34 -34 -34 -34 -34 -34 -34 -34 -34 -33 -33 -33 -32 -32 -32 -32 -32 -32 -32 -31 -31 -31 -31 -31 -31 -31 -30 -30 -30 -30 -30 -30 -30 -30 -30 -29 -28 -27 -27 -26 -25 -24 -24 -23 -23 -23 -23
-34 -34 -34 -33 -33 -33 -33 -33 -33 -33 -33 -33 -34 -34 -34 -34 -34 -34 -35 -35 -35 -34 -34 -34 -35 -35 -35 -34 -34 -34 -34 -34 -34 -34 -34 -34 -34 -33 -33 -33 -33 -32 -32 -32 -32 -32 -32 -31 -31 -31 -31 -31 -31 -30 -30 -30 -30 -30 -30 -30 -30 -30 -30 -30 -29 -28 -27 -27 -26 -25 -24 -24 -23 -23
-34 -34 -34 -34 -33 -34 -34 -34 -34 -34 -34 -34 -34 -34 -34 -34 -35 -35 -35 -35 -35 -35 -35 -35 -35 -35 -35 -35 -34 -34 -34 -34 -34 -34 -34 -34 -34 -34 -33 -33 -33 -33 -33 -33 -33 -32 -32 -32 -32 -31 -31 -31 -31 -30 -31 -31 -31 -31 -31 -30 -30 -30 -30 -30 -30 -30 -29 -28 -27 -27 -26 -25 -25 -24
-35 -35 -35 -35 -34 -34 -34 -35 -34 -34 -34 -34 -34 -35 -35 -35 -35 -35 -35 -35 -35 -35 -35 -35 -35 -35 -35 -35 -34 -34 -34 -34 -34 -34 -34 -34 -34 -34 -34 -34 -33 -33 -33 -33 -33 -33 -33 -32 -32 -32 -31 -31 -31 -31 -31 -31 -31 -31 -31 -31 -31 -31 -30 -30 -30 -30 -30 -29 -29 -28 -28 -27 -26 -25
-35 -36 -36 -35 -35 -35 -35 -35 -35 -35 -35 -35 -35 -35 -35 -35 -35 -35 -35 -35 -35 -35 -35 -35 -35 -35 -35 -35 -35 -35 -35 -35 -35 -35 -35 -34 -34 -34 -34 -34 -34 -33 -33 -33 -33 -33 -33 -32 -32 -32 -32 -32 -31 -31 -31 -31 -31 -31 -31 -31 -31 -31 -31 -30 -30 -30 -30 -30 -30 -29 -29 -28 -28 -27
-36 -36 -36 -36 -35 -35 -35 -35 -35 -35 -35 -35 -35 -35 -35 -36 -35 -35 -35 -35 -35 -35 -35 -35 -35 -35 -35 -35 -35 -35 -35 -35 -35 -35 -35 -35 -35 -35 -35 -34 -34 -34 -34 -33 -33 -33 -33 -32 -32 -32 -32 -32 -32 -32 -32 -31 -31 -31 -31 -31 -31 -31 -31 -31 -30 -30 -30 -30 -30 -30 -29 -29 -29 -28
-36 -36 -36 -36 -36 -36 -36 -36 -36 -36 -35 -35 -36 -36 -36 -36 -36 -36 -35 -35 -35 -35 -35 -36 -35 -35 -35 -35 -35 -35 -35 -35 -35 -35 -35 -35 -35 -35 -35 -35 -34 -34 -34 -34 -33 -33 -33 -33 -32 -32 -32 -32 -32 -32 -32 -32 -31 -31 -31 -31 -31 -31 -31 -31 -31 -30 -30 -30 -30 -30 -30 -30 -29 -29
-36 -36 -36 -36 -36 -36 -36 -36 -36 -36 -36 -36 -36 -36 -36 -36 -36 -36 -36 -35 -35 -35 -35 -36 -35 -35 -35 -35 -35 -35 -35 -35 -35 -35 -35 -35 -35 -35 -35 -35 -35 -35 -34 -34 -34 -34 -33 -33 -33 -33 -32 -32 -32 -32 -32 -32 -32 -31 -31 -31 -31 -31 -31 -31 -31 -31 -31 -31 -30 -30 -30 -30 -30 -30
-36 -36 -36 -36 -36 -36 -36 -36 -36 -36 -36 -37 -37 -37 -37 -37 -36 -36 -36 -35 -35 -35 -36 -36 -35 -35 -35 -35 -35 -35 -35 -35 -35 -35 -35 -35 -35 -35 -35 -35 -35 -35 -35 -34 -34 -34 -34 -33 -33 -33 -33 -32 -32 -32 -32 -32 -32 -32 -32 -32 -31 -31 -31 -31 -31 -31 -31 -31 -30 -30 -30 -30 -30 -30
Height
5398 5398 5399 5400 5402 5402 5401 5401 5402 5402 5403 5403 5402 5401 5400 5398 5399 5398 5396 5396 5393 5391 5389 5387 5386 5386 5387 5390 5393 5397 5401 5402 5404 5406 5409 5411 5414 5416 5418 5421 5425 5427 5430 5433 5438 5441 5443 5446 5448 5450 5453 5455 5457 5460 5463 5468 5475 5481 5484 5487 5491 5497 5503 5511 5521 5533 5545 5557 5567 5575 5579 5583 5588 5593
5385 5386 5388 5389 5391 5391 5390 5391 5392 5392 5393 5393 5392 5392 5390 5389 5389 5387 5387 5387 5385 5382 5380 5378 5377 5377 5378 5381 5384 5388 5392 5394 5396 5398 5400 5403 5405 5407 5409 5412 5415 5418 5421 5424 5428 5431 5434 5436 5438 5441 5443 5446 5449 5452 5455 5461 5467 5470 5473 5478 5482 5488 5495 5503 5513 5525 5537 5549 5560 5566 5569 5574 5579 5583
5372 5375 5377 5379 5380 5380 5380 5381 5382 5382 5383 5384 5383 5382 5381 5380 5379 5378 5377 5378 5377 5373 5370 5368 5368 5368 5370 5372 5376 5380 5384 5386 5387 5390 5392 5395 5397 5399 5401 5403 5406 5409 5412 5415 5418 5421 5424 5426 5429 5431 5434 5437 5440 5443 5447 5453 5459 5461 5464 5471 5475 5481 5489 5497 5506 5517 5529 5540 5551 5556 5559 5566 5572 5575
5361 5363 5366 5368 5370 5370 5370 5372 5372 5373 5374 5374 5374 5373 5372 5371 5371 5369 5368 5369 5369 5366 5362 5360 5360 5361 5362 5365 5368 5372 5375 5377 5380 5382 5385 5387 5389 5391 5393 5395 5397 5400 5402 5405 5408 5411 5414 5417 5419 5422 5425 5428 5430 5434 5439 5446 5451 5453 5458 5465 5470 5476 5484 5491 5500 5510 5520 5530 5539 5545 5549 5557 5564 5568
5349 5352 5354 5357 5359 5360 5361 5363 5363 5364 5364 5364 5364 5364 5364 5363 5362 5361 5360 5360 5361 5359 5355 5353 5353 5353 5355 5357 5360 5364 5367 5370 5372 5375 5378 5380 5382 5384 5385 5387 5389 5391 5394 5396 5399 5401 5404 5407 5410 5412 5416 5418 5421 5426 5432 5438 5444 5448 5454 5460 5465 5472 5479 5485 5493 5503 5512 5520 5528 5535 5541 5547 5554 5559
5338 5340 5344 5347 5349 5350 5352 5354 5355 5355 5355 5355 5355 5355 5355 5355 5354 5353 5352 5352 5353 5352 5348 5346 5346 5347 5348 5350 5352 5356 5360 5362 5365 5368 5370 5372 5374 5375 5377 5379 5381 5383 5385 5388 5389 5391 5393 5397 5400 5403 5406 5410 5413 5419 5425 5431 5438 5443 5449 5454 5460 5467 5473 5479 5486 5496 5506 5514 5519 5526 5531 5535 5542 5550
5327 5330 5334 5337 5338 5339 5342 5345 5346 5347 5347 5346 5347 5347 5346 5347 5346 5345 5345 5345 5345 5345 5342 5339 5340 5340 5341 5343 5345 5348 5352 5355 5358 5361 5363 5364 5366 5368 5369 5371 5372 5374 5377 5379 5380 5382 5384 5388 5391 5394 5397 5401 5406 5412 5418 5425 5431 5436 5443 5448 5455 5462 5467 5473 5480 5489 5501 5509 5513 5518 5522 5527 5534 5542
5318 5320 5324 5327 5328 5330 5333 5336 5337 5338 5338 5338 5339 5339 5339 5339 5339 5338 5338 5338 5337 5337 5336 5333 5332 5333 5334 5337 5339 5342 5345 5349 5352 5354 5355 5357 5359 5360 5362 5363 5364 5367 5369 5371 5373 5375 5377 5380 5382 5385 5388 5392 5398 5405 5411 5418 5424 5430 5437 5442 5448 5455 5461 5467 5474 5482 5494 5504 5507 5511 5516 5522 5529 5534
5309 5311 5314 5317 5318 5320 5324 5327 5328 5328 5329 5330 5331 5332 5331 5331 5331 5331 5331 5331 5330 5330 5329 5327 5325 5326 5328 5331 5333 5336 5339 5342 5345 5347 5348 5350 5352 5353 5355 5356 5357 5359 5362 5365 5367 5368 5369 5371 5373 5376 5379 5384 5391 5397 5404 5410 5417 5423 5430 5436 5442 5449 5454 5461 5468 5476 5486 5496 5499 5503 5509 5515 5521 5525
5299 5302 5305 5307 5308 5312 5315 5317 5318 5319 5321 5322 5323 5324 5324 5324 5324 5324 5324 5324 5324 5323 5322 5321 5320 5320 5322 5325 5327 5330 5333 5336 5338 5339 5341 5343 5344 5346 5347 5349 5350 5353 5356 5358 5360 5360 5361 5362 5365 5367 5370 5376 5383 5390 5397 5403 5409 5415 5423 5429 5436 5442 5448 5454 5462 5470 5478 5486 5491 5497 5501 5505 5511 5516
5290 5293 5295 5297 5299 5302 5306 5307 5308 5310 5312 5314 5315 5316 5316 5316 5317 5318 5318 5318 5317 5317 5316 5315 5314 5314 5317 5320 5321 5324 5327 5330 5331 5333 5335 5336 5337 5339 5341 5342 5345 5347 5350 5351 5351 5352 5353 5355 5358 5360 5363 5369 5376 5383 5390 5397 5402 5408 5416 5423 5429 5436 5442 5448 5456 5464 5470 5477 5484 5489 5493 5498 5503 5508
5281 5283 5286 5288 5290 5293 5296 5298 5300 5302 5304 5306 5307 5308 5308 5309 5310 5311 5311 5311 5312 5311 5310 5309 5308 5309 5311 5314 5316 5318 5322 5324 5325 5327 5328 5329 5330 5333 5335 5336 5339 5341 5343 5343 5343 5345 5347 5349 5352 5354 5357 5363 5370 5377 5384 5391 5397 5402 5409 5416 5422 5429 5436 5442 5450 5457 5463 5470 5475 5479 5486 5491 5496 5501
5272 5274 5276 5279 5281 5283 5286 5289 5291 5293 5296 5298 5299 5300 5301 5302 5303 5304 5305 5305 5306 5305 5304 5303 5303 5304 5306 5308 5310 5313 5316 5318 5319 5321 5322 5323 5325 5328 5329 5331 5334 5335 5335 5335 5337 5339 5341 5343 5345 5347 5351 5357 5364 5371 5377 5384 5393 5398 5402 5409 5416 5422 5429 5436 5443 5450 5456 5464 5469 5473 5480 5486 5490 5495
5263 5265 5267 5270 5272 5275 5277 5280 5282 5285 5288 5290 5292 5292 5294 5295 5296 5297 5298 5299 5299 5299 5299 5298 5297 5299 5301 5302 5305 5308 5310 5312 5314 5315 5316 5318 5320 5322 5324 5326 5328 5328 5328 5329 5331 5334 5335 5336 5338 5342 5346 5351 5357 5364 5369 5376 5386 5393 5397 5402 5409 5416 5423 5430 5438 5444 5449 5456 5462 5467 5473 5479 5485 5490
5254 5256 5258 5261 5264 5266 5269 5271 5274 5276 5279 5282 5284 5285 5286 5288 5289 5291 5292 5293 5293 5294 5293 5292 5292 5294 5295 5297 5300 5303 5305 5306 5308 5309 5311 5313 5315 5317 5319 5321 5322 5322 5322 5324 5326 5328 5329 5331 5334 5336 5339 5344 5350 5356 5362 5370 5378 5387 5393 5398 5403 5410 5418 5425 5431 5438 5442 5448 5456 5461 5465 5472 5479 5484
5244 5246 5249 5252 5255 5258 5260 5262 5265 5268 5271 5274 5276 5278 5279 5281 5282 5284 5285 5286 5287 5287 5288 5287 5287 5288 5290 5292 5295 5297 5299 5301 5302 5304 5306 5308 5310 5312 5314 5315 5316 5317 5317 5319 5321 5323 5324 5326 5329 5330 5332 5337 5343 5350 5357 5364 5373 5380 5388 5395 5400 5405 5412 5418 5423 5429 5434 5441 5449 5455 5459 5465 5472 5478
5235 5237 5240 5243 5246 5249 5251 5253 5256 5259 5263 5266 5269 5270 5272 5274 5275 5277 5279 5280 5281 5281 5282 5282 5282 5283 5285 5287 5290 5292 5293 5295 5297 5299 5301 5303 5305 5307 5308 5310 5312 5312 5313 5314 5317 5318 5319 5322 5324 5325 5326 5330 5337 5344 5351 5358 5367 5374 5382 5390 5396 5401 5406 5411 5416 5421 5427 5435 5443 5448 5452 5457 5464 5471
5225 5228 5231 5234 5238 5240 5242 5245 5248 5251 5254 5258 5261 5263 5265 5267 5268 5270 5272 5273 5274 5276 5276 5276 5276 5278 5280 5283 5285 5287 5288 5290 5293 5295 5296 5298 5300 5302 5303 5305 5307 5308 5309 5310 5312 5313 5315 5317 5318 5319 5321 5326 5331 5338 5345 5353 5361 5369 5375 5382 5389 5395 5400 5405 5410 5415 5421 5429 5435 5441 5445 5450 5456 5463
5216 5219 5222 5226 5229 5231 5234 5236 5239 5243 5247 5250 5254 5256 5258 5259 5261 5263 5265 5267 5268 5269 5270 5271 5271 5273 5276 5278 5280 5281 5283 5286 5288 5290 5292 5294 5296 5297 5299 5301 5302 5303 5305 5306 5308 5309 5311 5312 5313 5314 5317 5321 5326 5332 5340 5347 5355 5362 5369 5376 5383 5389 5394 5399 5404 5410 5416 5422 5428 5434 5439 5444 5450 5457
5208 5210 5213 5217 5220 5223 5225 5228 5231 5235 5239 5243 5247 5250 5251 5252 5254 5256 5258 5260 5262 5263 5264 5265 5267 5269 5271 5272 5274 5276 5278 5281 5283 5285 5287 5289 5291 5293 5295 5296 5297 5299 5301 5302 5304 5305 5307 5308 5309 5310 5312 5316 5320 5326 5333 5342 5349 5356 5363 5369 5376 5382 5387 5393 5398 5404 5410 5416 5423 5429 5433 5438 5445 5453
5200 5202 5205 5208 5211 5214 5217 5220 5223 5228 5232 5236 5240 5242 5244 5245 5247 5249 5251 5253 5256 5257 5259 5260 5262 5264 5265 5267 5269 5272 5274 5276 5278 5281 5283 5285 5287 5289 5291 5292 5294 5295 5297 5299 5300 5302 5303 5304 5305 5305 5308 5311 5315 5320 5327 5336 5343 5351 5357 5363 5370 5375 5381 5386 5392 5398 5404 5410 5416 5422 5427 5432 5439 5448
5192 5194 5196 5199 5203 5206 5209 5212 5216 5221 5225 5230 5233 5235 5236 5239 5241 5242 5244 5247 5249 5251 5253 5255 5257 5259 5260 5262 5265 5267 5269 5271 5274 5276 5278 5281 5283 5285 5287 5289 5290 5292 5294 5295 5297 5298 5299 5300 5301 5301 5303 5307 5310 5315 5321 5328 5336 5343 5350 5357 5363 5369 5375 5380 5386 5392 5398 5405 5410 5415 5420 5426 5433 5443
5183 5186 5188 5191 5195 5198 5201 5204 5209 5214 5218 5223 5225 5227 5230 5233 5234 5235 5237 5240 5243 5245 5248 5250 5252 5253 5255 5257 5260 5262 5265 5267 5269 5272 5274 5277 5279 5281 5283 5286 5288 5289 5291 5292 5293 5294 5295 5296 5297 5298 5300 5303 5306 5311 5316 5322 5329 5336 5343 5350 5356 5362 5369 5375 5381 5387 5393 5399 5404 5409 5415 5422 5429 5437
5175 5177 5180 5183 5187 5190 5193 5197 5202 5207 5212 5215 5218 5221 5224 5226 5226 5228 5231 5234 5237 5240 5242 5244 5246 5248 5250 5253 5255 5258 5260 5262 5265 5268 5270 5273 5276 5278 5280 5283 5285 5286 5287 5289 5290 5291 5291 5292 5293 5295 5296 5299 5302 5306 5310 5316 5323 5330 5337 5344 5350 5356 5362 5368 5375 5381 5387 5392 5397 5403 5410 5417 5424 5431
5167 5169 5171 5175 5179 5182 5186 5191 5195 5200 5204 5208 5211 5214 5217 5218 5219 5222 5225 5228 5232 5235 5237 5239 5241 5243 5245 5247 5250 5252 5255 5258 5261 5263 5266 5269 5272 5274 5277 5279 5281 5283 5284 5285 5286 5287 5288 5289 5291 5292 5294 5296 5299 5302 5306 5310 5317 5323 5330 5337 5344 5351 5357 5363 5369 5375 5381 5386 5391 5397 5404 5411 5418 5425
5158 5160 5163 5167 5171 5175 5180 5184 5189 5193 5197 5201 5205 5207 5209 5210 5213 5217 5220 5223 5227 5229 5231 5234 5236 5238 5240 5242 5244 5247 5251 5254 5256 5259 5262 5265 5268 5271 5273 5276 5278 5279 5280 5282 5283 5284 5285 5287 5288 5290 5291 5293 5295 5299 5301 5305 5310 5316 5323 5330 5338 5345 5351 5358 5364 5370 5375 5380 5385 5391 5397 5404 5411 5417
5148 5152 5156 5160 5164 5169 5173 5178 5182 5186 5190 5194 5198 5200 5202 5205 5208 5211 5215 5218 5221 5223 5226 5229 5231 5233 5235 5237 5239 5242 5246 5249 5252 5255 5258 5261 5264 5267 5270 5272 5274 5275 5277 5278 5279 5281 5283 5284 5286 5287 5288 5290 5292 5295 5297 5300 5304 5310 5316 5322 5329 5337 5345 5352 5358 5364 5369 5375 5380 5386 5392 5398 5404 5409
5140 5144 5148 5152 5157 5162 5167 5171 5175 5179 5184 5188 5191 5193 5196 5199 5202 5206 5210 5213 5215 5218 5221 5224 5226 5228 5230 5232 5235 5238 5242 5245 5248 5251 5254 5257 5260 5263 5266 5269 5270 5272 5273 5275 5276 5278 5280 5282 5283 5285 5286 5287 5288 5290 5293 5295 5298 5302 5309 5315 5322 5329 5337 5344 5351 5357 5363 5369 5375 5380 5385 5390 5395 5401
5133 5137 5141 5146 5151 5156 5160 5165 5169 5173 5178 5182 5184 5186 5190 5194 5197 5201 5205 5207 5210 5213 5216 5218 5220 5223 5225 5228 5231 5234 5238 5241 5244 5246 5250 5253 5256 5259 5262 5265 5267 5268 5269 5271 5273 5275 5277 5279 5281 5282 5283 5284 5285 5287 5288 5290 5292 5296 5301 5308 5315 5322 5329 5336 5343 5350 5356 5362 5367 5372 5376 5382 5387 5393
5126 5131 5135 5140 5145 5150 5154 5159 5163 5167 5172 5175 5177 5180 5184 5188 5192 5196 5200 5203 5206 5208 5211 5213 5215 5218 5220 5224 5228 5231 5234 5237 5239 5242 5245 5248 5252 5255 5259 5261 5263 5265 5267 5269 5270 5272 5274 5276 5278 5280 5281 5282 5283 5284 5285 5286 5288 5290 5294 5300 5308 5316 5323 5330 5336 5342 5349 5354 5359 5364 5370 5375 5380 5386
5120 5124 5129 5134 5139 5144 5148 5153 5157 5161 5166 5169 5172 5175 5179 5183 5187 5192 5195 5198 5201 5203 5205 5208 5211 5213 5217 5221 5224 5227 5230 5233 5235 5238 5241 5244 5247 5251 5255 5258 5260 5262 5264 5265 5267 5269 5271 5274 5276 5277 5278 5280 5281 5282 5283 5284 5284 5286 5290 5294 5300 5307 5315 5323 5330 5335 5340 5346 5352 5358 5364 5369 5374 5379
5114 5119 5124 5129 5134 5138 5143 5148 5152 5156 5160 5164 5167 5170 5174 5178 5183 5187 5190 5193 5196 5199 5201 5204 5206 5210 5213 5217 5220 5223 5226 5229 5232 5234 5237 5240 5243 5247 5251 5254 5256 5258 5260 5262 5264 5266 5269 5271 5273 5275 5276 5278 5279 5280 5281 5282 5282 5284 5286 5290 5293 5299 5307 5315 5322 5327 5332 5339 5346 5351 5356 5362 5367 5372
5109 5114 5119 5124 5129 5133 5138 5142 5146 5150 5155 5158 5162 5165 5168 5173 5178 5183 5186 5189 5192 5195 5197 5200 5203 5206 5209 5213 5216 5219 5222 5225 5228 5230 5233 5236 5239 5243 5247 5250 5253 5255 5257 5259 5261 5264 5266 5268 5270 5272 5273 5275 5277 5278 5279 5280 5281 5282 5283 5285 5288 5292 5298 5304 5311 5317 5325 5331 5337 5343 5348 5354 5359 5364
5105 5110 5115 5119 5123 5127 5132 5137 5141 5145 5149 5153 5157 5160 5164 5168 5174 5178 5182 5185 5188 5190 5193 5196 5199 5202 5206 5209 5212 5215 5218 5222 5224 5227 5230 5233 5236 5239 5242 5246 5249 5251 5253 5256 5258 5261 5263 5265 5267 5269 5270 5272 5274 5275 5276 5277 5279 5279 5280 5281 5283 5287 5291 5295 5301 5308 5316 5322 5328 5334 5340 5346 5352 5358
5100 5105 5110 5114 5118 5122 5127 5131 5135 5139 5143 5147 5152 5155 5159 5164 5170 5174 5177 5180 5183 5186 5189 5192 5195 5199 5202 5206 5209 5212 5215 5218 5221 5224 5226 5230 5233 5235 5239 5242 5245 5248 5250 5252 5255 5258 5260 5262 5264 5266 5267 5269 5271 5272 5274 5275 5276 5277 5278 5278 5280 5282 5286 5289 5294 5299 5306 5312 5318 5325 5331 5337 5344 5351
5096 5101 5105 5109 5113 5117 5121 5126 5130 5134 5138 5142 5146 5150 5155 5160 5165 5169 5173 5176 5179 5182 5185 5189 5192 5195 5199 5202 5206 5209 5212 5215 5218 5220 5223 5226 5229 5232 5235 5239 5241 5244 5247 5249 5252 5254 5257 5259 5261 5263 5265 5266 5268 5269 5270 5272 5274 5275 5276 5277 5277 5279 5281 5284 5287 5292 5297 5303 5309 5316 5322 5329 5336 5341
5092 5096 5100 5104 5108 5112 5116 5120 5125 5129 5133 5137 5141 5146 5150 5155 5160 5164 5168 5171 5174 5177 5181 5185 5188 5192 5195 5199 5203 5205 5208 5211 5214 5217 5220 5223 5226 5229 5232 5235 5238 5241 5243 5246 5249 5251 5254 5256 5258 5260 5262 5263 5265 5266 5268 5270 5271 5272 5273 5274 5275 5276 5277 5279 5281 5284 5288 5294 5300 5306 5312 5319 5325 5331
5088 5093 5096 5100 5104 5108 5112 5116 5120 5124 5128 5133 5137 5141 5146 5151 5155 5159 5163 5167 5170 5173 5177 5181 5185 5189 5193 5196 5199 5202 5205 5209 5211 5214 5217 5220 5223 5226 5229 5232 5235 5238 5240 5243 5246 5248 5250 5253 5255 5257 5258 5260 5262 5264 5266 5268 5269 5269 5270 5271 5272 5274 5275 5276 5277 5278 5281 5286 5291 5296 5301 5307 5314 5320
5085 5089 5092 5096 5100 5104 5108 5112 5116 5120 5124 5128 5133 5138 5143 5147 5151 5155 5159 5163 5166 5169 5174 5178 5182 5186 5190 5193 5197 5200 5203 5206 5209 5212 5215 5218 5220 5223 5226 5229 5232 5235 5238 5241 5243 5245 5247 5249 5251 5253 5255 5257 5259 5262 5265 5265 5266 5267 5268 5268 5270 5271 5273 5274 5274 5275 5277 5280 5283 5287 5292 5297 5302 5308
5082 5086 5089 5092 5095 5099 5104 5107 5111 5116 5120 5124 5129 5134 5139 5143 5147 5151 5155 5159 5162 5166 5171 5175 5179 5183 5187 5190 5194 5197 5200 5203 5206 5209 5212 5215 5218 5221 5223 5226 5229 5232 5235 5238 5240 5242 5244 5246 5247 5249 5251 5254 5257 5259 5261 5262 5263 5264 5265 5267 5267 5268 5270 5271 5272 5273 5274 5275 5278 5281 5285 5288 5292 5297
5079 5083 5086 5088 5091 5095 5100 5104 5107 5111 5116 5120 5125 5130 5135 5139 5143 5148 5151 5155 5158 5162 5167 5171 5176 5180 5184 5187 5191 5194 5198 5201 5204 5207 5210 5213 5216 5218 5221 5223 5226 5229 5231 5234 5237 5239 5241 5243 5245 5247 5249 5251 5253 5255 5256 5258 5259 5261 5262 5264 5266 5267 5267 5268 5270 5271 5272 5273 5275 5277 5279 5281 5284 5287
5077 5080 5083 5086 5089 5092 5096 5100 5104 5108 5112 5117 5122 5126 5131 5135 5139 5143 5147 5150 5154 5159 5163 5168 5173 5177 5181 5185 5188 5192 5195 5199 5202 5205 5208 5211 5213 5216 5218 5221 5223 5226 5228 5231 5233 5236 5238 5240 5242 5244 5246 5248 5250 5251 5251 5253 5255 5257 5260 5261 5263 5264 5265 5266 5267 5268 5270 5271 5272 5273 5274 5276 5277 5279
5076 5078 5081 5084 5087 5090 5094 5097 5101 5105 5109 5114 5118 5123 5127 5132 5136 5140 5143 5147 5152 5156 5160 5165 5170 5174 5178 5182 5185 5189 5193 5196 5200 5203 5206 5209 5211 5214 5216 5219 5221 5223 5225 5228 5230 5232 5234 5237 5239 5241 5243 5245 5247 5247 5247 5248 5251 5254 5256 5258 5260 5261 5262 5263 5264 5265 5267 5268 5269 5270 5271 5272 5273 5275
5075 5077 5079 5082 5085 5088 5092 5095 5098 5102 5106 5111 5115 5120 5124 5129 5133 5136 5140 5145 5149 5154 5158 5162 5167 5171 5176 5179 5183 5187 5190 5194 5197 5200 5203 5206 5209 5212 5214 5217 5219 5221 5223 5226 5228 5229 5231 5233 5235 5237 5239 5241 5243 5244 5244 5246 5248 5250 5252 5254 5256 5257 5258 5259 5260 5262 5263 5264 5265 5267 5268 5269 5270 5272
5073 5076 5078 5080 5083 5086 5089 5093 5096 5099 5103 5107 5112 5117 5121 5126 5130 5133 5137 5142 5147 5151 5155 5160 5165 5169 5173 5177 5180 5184 5188 5192 5195 5198 5201 5204 5207 5210 5212 5215 5217 5219 5221 5223 5225 5227 5229 5230 5232 5233 5235 5237 5239 5240 5242 5243 5245 5247 5249 5250 5252 5252 5254 5255 5256 5257 5258 5260 5261 5262 5264 5265 5267 5268
Wind_Speed
76 75 74 72 70 67 66 63 61 60 58 56 55 55 56 57 56 56 57 56 57 57 58 60 61 63 64 64 63 63 62 61 60 60 61 61 61 62 62 62 62 63 64 65 65 65 67 68 68 70 71 73 75 76 79 77 71 72 73 75 80 85 91 95 96 95 93 94 89 85 88 88 86 92
76 76 74 72 69 67 64 62 60 59 56 55 54 53 54 55 55 54 54 53 53 53 55 57 60 62 63 63 63 61 60 60 60 59 59 59 59 60 60 60 60 61 62 63 63 64 66 66 68 69 70 72 72 72 75 71 66 70 71 70 74 81 88 93 95 93 94 96 85 75 79 81 79 86
76 75 73 71 68 66 63 61 59 57 55 53 53 52 52 53 52 52 51 49 48 50 52 56 58 60 61 62 62 60 59 59 59 58 57 57 57 58 58 58 58 59 60 61 62 63 64 65 67 68 69 70 69 70 73 69 67 73 72 66 70 76 82 89 92 91 97 97 82 69 69 72 75 82
74 73 72 69 67 65 62 60 58 56 54 53 51 50 50 50 50 50 49 47 45 47 51 54 56 58 59 60 60 59 58 59 58 56 55 55 55 55 56 56 57 57 58 59 61 62 63 64 65 67 67 66 67 70 74 72 72 76 71 65 68 72 76 85 89 92 101 98 81 69 62 65 74 80
71 70 70 68 66 64 61 59 57 54 53 52 50 49 48 48 48 48 47 46 44 46 49 52 54 56 57 58 59 58 58 58 57 54 52 52 53 53 54 55 55 56 56 57 59 61 63 63 63 65 65 64 67 73 76 75 76 76 70 65 69 71 72 82 89 95 104 102 87 75 68 68 76 81
68 68 67 66 64 63 60 58 56 53 52 51 49 47 46 46 47 47 46 46 44 44 47 50 52 54 55 56 57 57 57 57 56 53 50 50 51 52 52 53 53 53 54 54 57 60 62 61 61 62 62 62 69 77 78 78 79 77 71 68 72 73 72 79 90 97 100 97 86 76 74 78 81 84
65 65 65 64 64 62 60 57 55 53 51 50 48 46 45 45 46 46 45 45 44 43 45 48 50 51 53 54 55 55 55 54 54 52 50 50 50 50 51 52 52 52 52 53 55 58 60 59 58 59 59 62 73 80 79 79 79 77 75 73 75 76 74 77 90 100 94 85 83 79 78 82 82 85
64 63 63 63 63 62 59 56 54 52 51 49 47 45 45 45 45 45 44 44 43 42 43 45 48 49 51 52 52 53 53 52 51 50 50 50 49 49 50 50 51 51 51 52 54 56 58 56 55 55 56 64 79 83 79 78 77 76 76 77 78 78 77 77 88 103 95 78 81 85 83 84 81 82
62 63 62 62 63 61 58 55 54 52 50 48 46 44 44 45 45 45 43 42 42 42 41 43 47 48 49 50 49 50 50 50 49 49 49 49 49 48 49 49 50 50 50 51 52 54 56 54 52 51 55 68 84 85 80 78 78 78 78 80 81 80 81 81 85 98 97 84 80 82 81 84 83 79
61 61 61 62 62 60 57 55 54 52 50 48 46 44 43 44 45 44 43 41 41 41 40 41 44 46 46 47 47 48 49 48 47 47 48 48 48 48 48 48 49 49 49 49 51 52 53 52 49 48 56 74 86 84 81 80 79 80 81 82 83 80 80 84 87 92 98 95 84 76 75 80 80 76
58 59 60 61 61 59 57 56 54 52 50 48 46 44 44 44 44 43 43 41 39 40 40 40 42 44 44 45 45 46 47 46 46 46 46 46 47 47 47 47 47 48 47 48 50 51 51 50 47 47 58 79 87 82 80 79 75 78 83 84 85 82 77 80 87 93 100 101 91 79 74 75 74 70
56 57 58 59 59 58 57 56 55 52 50 48 46 45 44 44 43 43 43 42 39 38 38 38 40 42 42 43 43 44 44 44 44 44 44 44 45 45 45 46 46 46 46 47 49 49 48 47 45 46 59 83 91 82 79 76 67 69 81 85 85 86 83 80 84 94 101 102 98 91 82 75 72 69
55 56 57 57 58 57 56 56 55 53 51 48 46 46 45 44 44 43 43 42 40 38 37 37 39 40 41 42 42 42 42 43 42 42 42 43 44 43 44 44 44 44 45 46 47 47 45 45 44 45 59 84 94 85 81 80 68 63 74 81 80 84 90 89 87 92 97 97 97 96 90 81 76 75
54 55 56 56 56 56 56 56 55 54 51 48 47 46 46 45 45 44 43 42 41 39 37 37 38 39 40 41 41 40 41 41 41 40 40 41 41 42 42 42 42 43 44 45 45 43 42 42 42 43 55 80 93 88 84 85 78 69 69 73 72 76 86 90 89 92 95 94 92 92 91 84 75 74
53 54 55 55 55 55 55 56 56 55 52 49 47 47 46 46 46 45 43 42 41 40 37 37 37 39 41 41 40 39 39 39 39 38 38 38 39 40 40 40 40 41 42 43 42 40 40 40 40 40 51 75 91 91 87 85 83 81 76 68 66 70 75 77 79 83 89 93 94 94 93 88 78 74
54 53 54 54 54 54 54 55 56 55 53 50 48 47 46 46 47 46 44 42 41 40 38 37 37 39 41 41 40 39 38 37 37 36 36 37 38 39 38 38 39 39 41 41 39 38 38 38 38 38 48 71 88 93 92 88 83 84 87 78 67 67 69 67 66 71 78 87 93 90 86 85 84 79
54 53 53 53 54 53 53 55 56 55 53 50 48 47 46 46 46 47 45 43 41 40 38 37 37 39 41 40 39 38 37 36 35 35 35 35 36 37 37 37 37 38 39 39 37 36 36 36 36 37 47 68 84 91 93 91 85 82 86 84 74 69 68 65 62 62 67 74 76 73 71 75 80 78
54 53 52 52 52 53 53 54 55 55 53 51 48 47 46 45 46 46 45 43 41 40 38 37 37 38 40 39 39 38 37 35 34 33 33 34 34 35 35 35 35 36 37 37 35 34 34 35 34 36 46 65 80 88 92 91 86 81 79 77 75 73 69 67 65 62 62 64 63 61 64 72 76 74
54 53 52 51 52 52 52 53 54 54 53 50 48 46 45 46 46 45 45 43 41 40 39 37 36 37 39 39 38 38 36 34 33 32 32 32 33 34 34 33 34 35 35 34 33 32 32 34 35 35 44 62 75 84 90 90 86 82 77 72 71 71 70 68 67 67 67 66 64 62 66 75 79 75
54 53 52 51 51 52 52 52 53 53 52 50 47 46 45 45 45 44 44 43 41 40 39 37 35 37 39 39 38 37 36 34 32 31 31 31 32 32 32 33 33 33 32 31 30 31 31 33 35 35 41 57 72 80 87 89 87 84 79 73 69 68 68 67 66 68 72 72 68 66 68 77 83 81
53 53 52 51 51 51 52 52 52 52 51 49 47 46 45 45 44 44 43 43 41 40 39 37 35 37 39 39 38 37 36 34 32 31 31 31 32 32 31 32 31 30 29 28 28 29 31 32 34 35 38 51 67 78 85 88 88 85 81 76 72 67 66 66 65 67 71 71 67 66 68 73 80 81
51 52 52 51 50 51 51 51 51 51 49 48 47 46 46 44 43 43 43 42 41 40 39 37 35 36 39 39 37 37 36 34 32 31 31 31 31 31 30 30 29 27 25 25 25 27 29 31 33 35 37 46 61 73 81 86 89 87 84 78 74 70 67 66 65 66 69 68 66 67 70 73 75 76
50 51 52 51 50 50 50 50 50 49 48 47 47 46 45 43 43 43 43 42 41 39 38 36 35 36 39 39 37 37 36 34 33 32 31 31 31 30 30 28 26 25 23 22 23 25 28 30 33 35 36 42 55 67 76 83 87 88 86 81 76 72 70 68 66 66 66 65 64 66 70 72 72 70
49 50 51 51 50 50 49 49 48 48 47 46 47 46 44 43 43 44 43 42 41 39 38 36 35 36 39 39 37 37 36 35 33 32 32 32 31 30 29 27 26 24 23 23 24 25 27 29 32 34 35 39 50 61 70 77 83 87 87 84 79 75 73 70 67 66 65 63 64 66 68 70 70 69
49 50 51 51 50 50 49 48 47 47 46 46 46 45 44 44 44 43 43 42 40 38 37 36 35 36 38 39 37 38 37 35 34 33 32 32 32 31 30 28 27 26 25 24 25 25 27 28 29 31 33 36 43 54 64 71 77 83 86 85 82 79 77 74 70 68 66 64 65 67 68 69 71 71
49 50 51 50 50 49 48 47 46 46 45 45 45 45 45 45 43 43 42 41 39 38 37 36 35 36 38 39 38 38 38 36 34 33 33 33 33 32 31 30 29 27 26 25 26 26 26 27 27 27 30 32 36 45 56 65 72 78 83 84 84 83 80 76 73 70 69 68 68 69 71 73 74 74
49 50 50 50 49 48 47 46 45 45 45 44 45 46 45 44 43 42 42 40 38 38 37 36 36 37 38 39 39 39 38 36 34 33 33 34 33 33 33 31 29 28 27 26 26 26 26 25 25 25 26 28 31 37 47 57 66 72 78 83 86 85 83 79 76 74 73 72 71 71 73 76 78 78
49 49 49 49 48 47 46 45 45 45 44 44 45 45 45 43 43 42 41 39 39 38 37 36 36 37 39 40 40 39 38 35 34 33 33 34 34 34 33 32 30 29 28 27 26 25 25 24 24 24 24 25 27 31 39 50 61 68 73 79 85 88 85 82 80 78 76 75 74 73 75 78 82 83
48 48 48 48 47 46 46 45 45 44 44 44 45 45 44 43 42 42 40 39 38 37 37 37 37 38 40 40 39 38 37 35 34 33 33 34 35 34 33 32 31 31 29 27 25 24 24 24 23 22 22 23 24 27 32 42 56 67 72 76 82 88 88 85 83 82 79 78 76 75 75 79 84 87
47 47 47 47 46 45 45 44 43 43 43 44 45 45 44 43 42 42 40 39 37 37 37 38 38 39 40 40 38 37 36 35 33 33 33 34 35 35 34 33 32 31 29 26 25 25 25 24 22 20 19 18 18 20 24 32 46 62 72 76 80 86 89 89 88 86 84 82 80 78 76 78 82 86
46 46 46 45 44 44 43 43 43 43 43 43 44 44 43 42 42 41 40 38 37 38 38 38 38 39 40 39 37 36 36 34 33 33 33 34 35 35 34 33 33 31 29 26 26 26 25 24 22 20 18 16 15 14 15 21 32 48 65 75 79 82 86 90 91 91 89 86 83 81 79 78 79 83
44 45 44 43 43 42 42 42 42 42 42 43 44 43 43 42 41 40 39 38 37 37 38 38 38 38 39 38 37 36 35 34 33 33 33 34 35 35 34 33 33 31 29 27 27 27 26 25 23 22 20 17 15 14 13 14 20 31 49 65 75 80 83 87 91 93 93 90 87 84 82 80 80 82
43 43 43 42 41 41 41 41 42 42 42 43 43 43 43 43 41 40 38 37 36 37 38 38 38 38 39 38 37 36 35 33 32 32 32 33 33 34 34 33 33 31 29 28 28 28 28 27 25 24 22 19 17 16 14 14 14 19 31 48 64 74 80 83 88 93 95 93 90 88 86 84 82 82
41 42 41 41 41 42 42 42 42 43 43 43 43 43 43 42 40 39 38 37 37 37 38 38 38 38 38 38 37 35 34 32 31 31 32 32 32 33 34 34 33 32 30 29 29 29 29 29 27 25 23 22 20 18 16 15 14 14 19 31 46 62 73 80 84 90 94 95 94 92 91 89 87 85
40 40 40 41 42 42 42 42 43 44 44 44 44 43 43 41 39 39 38 37 37 38 38 38 37 38 38 38 36 34 33 32 31 31 31 31 32 33 34 34 33 32 30 30 30 30 30 30 29 27 25 24 22 20 19 17 15 14 15 19 29 44 59 71 79 84 90 95 96 95 95 94 92 90
40 40 40 41 42 43 42 43 43 44 44 44 44 43 42 41 40 39 38 37 38 39 38 38 37 38 39 37 35 34 33 31 31 31 31 31 32 33 33 34 33 32 31 30 30 30 31 31 30 29 27 26 24 23 21 19 17 16 15 16 19 26 38 53 65 75 82 88 93 96 97 97 97 95
38 39 41 42 43 43 43 43 43 44 44 43 43 43 42 41 41 40 39 38 38 39 39 38 38 39 39 37 35 34 33 31 31 31 31 31 31 32 33 33 33 31 31 30 29 29 30 31 30 30 29 28 27 25 23 20 18 17 17 17 17 18 22 31 44 57 68 77 83 89 94 98 99 99
36 37 39 41 42 42 42 43 43 43 43 43 42 42 42 42 42 41 40 39 39 40 39 39 39 39 38 36 35 34 33 32 32 32 31 31 31 32 32 32 32 31 30 29 28 29 29 30 31 30 30 30 29 26 23 21 20 19 19 19 19 18 18 20 26 37 49 61 70 78 84 91 96 99
35 36 37 39 40 40 40 41 42 42 42 42 41 41 42 42 43 42 42 41 41 40 39 39 40 39 38 36 35 34 33 32 33 32 32 31 31 31 31 30 30 30 29 28 28 28 28 29 30 30 31 31 29 26 23 22 21 21 20 20 20 20 20 19 20 24 31 42 54 64 72 79 87 93
32 33 35 37 38 38 39 40 40 40 40 41 41 40 41 42 43 43 43 43 42 41 40 40 40 39 38 37 35 34 33 33 33 32 32 31 31 30 29 29 29 29 28 28 27 27 28 28 29 30 30 29 27 25 24 24 23 23 22 22 21 22 22 22 21 21 23 28 35 46 56 66 74 82
29 31 32 35 36 37 37 38 39 39 40 40 40 41 42 43 44 43 43 44 43 42 42 41 40 39 38 37 36 35 34 34 33 32 32 31 30 29 28 27 27 27 27 27 27 27 28 28 28 27 27 27 26 25 25 26 26 25 24 23 23 23 23 23 23 23 23 24 26 32 40 49 58 68
26 28 31 33 35 35 35 36 37 38 39 39 40 41 42 44 44 44 45 45 45 44 43 42 41 40 39 37 36 35 35 35 34 33 32 31 30 28 27 26 25 24 25 25 25 26 26 26 26 26 25 25 24 25 26 28 28 26 25 24 23 23 24 25 25 25 25 25 26 28 31 37 44 53
23 25 27 29 31 32 32 34 35 37 38 39 40 42 43 44 44 45 46 46 45 45 44 43 42 41 40 38 37 36 36 35 34 33 32 31 30 28 27 25 24 24 23 23 23 23 24 24 25 25 25 24 24 25 27 28 27 26 25 25 24 24 25 25 26 26 27 27 28 29 31 32 36 41
19 21 23 25 27 28 30 32 34 36 37 39 40 42 43 43 44 45 45 45 45 45 45 44 43 42 40 39 38 37 36 35 34 33 32 31 30 28 27 26 25 24 23 22 22 21 21 22 22 23 23 24 24 25 27 27 26 26 25 25 25 25 25 26 26 26 27 28 29 30 31 33 34 35
17 18 21 23 25 27 29 31 33 36 37 40 42 42 42 42 43 44 45 44 45 46 46 45 43 42 40 39 38 38 36 35 34 33 32 32 31 30 28 27 26 25 24 23 23 22 21 21 21 21 22 22 23 24 25 25 26 26 25 25 25 25 26 26 26 27 27 29 30 31 32 34 35 36
Wind_Direction
257 255 254 254 255 257 258 260 262 264 267 270 273 276 278 279 279 278 276 274 271 267 262 259 256 254 251 249 247 246 245 245 246 247 247 246 245 245 246 247 246 245 245 244 243 241 241 242 242 243 242 242 243 244 246 247 245 243 239 235 233 228 224 222 219 218 213 207 208 214 218 221 224 224
255 253 252 253 253 255 256 258 260 263 266 269 272 275 278 279 279 278 276 274 271 267 262 257 253 251 249 247 245 244 243 244 245 246 247 246 245 245 246 247 246 246 245 244 243 241 240 241 241 241 240 240 242 242 243 242 240 239 237 235 232 226 221 219 217 215 208 204 207 210 212 218 224 224
254 253 252 251 252 252 254 256 259 261 264 268 271 275 277 279 279 278 276 275 272 268 262 256 252 249 247 245 243 242 242 243 244 246 246 247 246 245 246 247 247 246 245 244 242 240 240 240 241 240 239 240 240 238 235 234 234 235 235 234 230 223 218 217 216 212 204 203 207 209 209 214 221 226
254 252 251 250 249 250 252 254 257 260 263 267 270 274 276 278 278 277 276 276 273 268 263 257 252 248 246 244 241 240 240 242 244 245 246 246 246 246 247 248 248 247 246 244 242 241 240 240 240 239 238 239 237 230 227 228 229 229 230 230 224 218 216 216 214 209 203 202 208 215 216 216 219 224
254 252 250 249 248 249 250 252 255 259 262 266 269 272 275 277 277 275 275 275 274 270 264 259 252 248 246 243 240 238 238 241 243 245 246 246 246 246 247 248 248 247 246 245 243 243 242 241 241 239 238 237 230 222 220 222 223 223 226 225 217 213 215 215 212 207 204 206 211 218 223 221 218 221
255 252 250 249 248 248 248 251 253 256 260 264 267 271 274 275 275 273 273 275 274 271 266 260 253 248 246 243 240 238 238 239 242 244 245 246 246 246 247 249 249 248 247 245 244 244 243 242 241 239 238 234 223 214 213 216 216 219 224 222 212 210 214 214 210 206 207 212 215 216 221 222 216 216
256 254 251 249 247 247 247 249 252 255 258 262 265 268 271 273 272 271 272 274 274 271 268 261 253 248 246 243 240 238 238 239 241 243 245 246 246 247 248 249 250 248 246 245 245 245 245 244 243 241 239 229 215 208 208 209 212 218 221 218 211 210 212 212 208 205 206 215 219 218 222 223 216 213
257 255 252 249 247 246 246 248 250 253 256 259 262 266 268 269 269 269 270 273 274 272 269 262 254 248 245 242 240 239 238 238 240 242 245 246 247 247 249 250 250 248 246 245 246 247 247 247 245 243 239 223 209 205 204 205 209 216 216 213 210 209 210 210 208 207 206 211 218 221 225 225 217 212
256 255 252 250 247 245 245 247 249 252 254 257 260 263 265 266 266 267 269 273 274 273 270 263 254 249 245 241 240 239 238 238 240 242 244 246 247 248 249 249 249 247 246 245 246 248 249 249 247 244 235 217 205 203 202 201 205 211 211 210 209 209 210 209 207 209 208 206 211 217 222 222 216 210
256 254 252 250 247 245 244 245 247 250 253 255 259 261 262 263 264 265 267 271 274 273 271 264 254 248 244 240 239 239 238 239 240 241 244 246 247 248 248 247 247 247 246 246 247 249 250 250 248 243 230 213 202 200 200 198 198 204 207 209 208 207 208 209 208 208 207 206 211 216 215 213 210 207
256 254 252 249 247 245 244 244 246 248 251 254 256 258 260 261 262 263 264 268 273 274 273 266 255 247 243 239 239 239 238 239 240 241 243 246 247 247 247 246 246 247 247 246 247 249 250 250 248 242 226 210 200 198 199 197 194 195 200 205 206 204 203 205 207 207 206 207 212 215 213 209 207 207
256 254 252 249 247 245 243 243 244 246 249 252 254 256 257 258 260 261 261 264 271 274 274 268 256 246 242 240 240 239 238 238 239 241 243 245 245 246 246 246 245 246 246 246 248 249 250 251 249 241 224 209 201 197 196 195 194 193 194 198 203 204 203 203 204 206 207 208 211 214 216 217 216 214
256 254 252 249 248 246 244 243 243 245 247 250 251 253 255 256 257 259 260 261 266 272 274 268 256 246 241 240 240 239 238 238 239 241 242 243 244 244 245 245 245 245 245 246 248 249 251 251 249 241 223 209 204 202 199 199 201 197 191 192 196 201 205 207 208 208 208 211 215 217 219 223 225 223
255 254 252 250 248 247 245 244 243 244 246 247 249 251 253 254 255 257 259 260 262 267 272 269 257 245 240 240 239 238 238 238 239 240 241 242 243 243 243 244 243 243 244 246 248 249 250 250 250 242 224 211 207 207 207 206 208 206 196 189 189 195 203 208 211 213 214 215 217 220 221 221 222 224
254 253 252 250 248 247 246 244 243 243 244 246 247 249 252 253 253 254 256 258 260 263 268 268 258 245 240 239 239 238 237 237 238 239 240 240 241 242 242 242 241 242 244 246 247 248 249 250 250 243 225 213 208 209 211 211 211 213 209 197 187 189 195 199 201 206 212 216 217 219 221 220 217 217
254 252 250 249 248 247 246 245 244 243 243 244 246 248 250 252 252 251 253 256 258 259 263 266 257 244 239 239 238 238 237 237 238 239 239 239 239 241 241 239 239 240 243 245 246 246 248 249 250 244 225 213 209 210 212 212 211 213 215 209 196 190 192 192 189 189 195 206 212 214 216 218 216 213
253 251 250 248 247 246 245 245 244 243 243 243 244 247 249 251 251 250 251 253 256 257 259 263 257 244 238 238 238 237 237 237 237 238 237 238 238 239 240 238 237 239 242 245 245 245 247 248 249 244 226 214 211 211 211 211 209 208 210 209 204 200 198 196 192 186 185 193 201 205 210 213 211 210
251 250 249 248 246 245 245 245 244 243 243 243 243 245 248 250 250 249 249 250 253 254 255 259 256 244 237 238 239 237 235 235 236 236 236 237 237 238 238 237 237 238 240 242 243 244 245 246 248 243 227 216 214 213 211 210 209 206 205 205 204 205 204 201 199 196 192 193 197 203 213 218 214 213
249 249 248 246 245 244 244 244 243 243 243 242 242 244 246 248 249 248 247 247 250 251 252 256 255 244 236 237 239 236 234 233 234 235 235 236 236 236 237 236 236 238 239 239 241 243 244 244 247 243 228 219 217 216 213 212 210 207 205 205 204 204 205 204 202 202 203 206 207 209 217 223 222 222
247 247 246 244 243 243 243 243 243 242 242 242 242 243 245 247 247 247 245 245 247 248 248 252 253 242 235 236 237 235 233 232 232 233 234 235 236 235 235 235 236 237 238 239 240 241 243 244 246 244 231 221 218 217 215 214 211 208 208 208 206 204 204 203 201 201 205 208 208 209 216 223 224 226
243 244 245 243 241 241 241 242 242 241 241 241 241 242 244 246 246 245 243 243 245 245 245 248 249 240 234 235 236 234 231 230 231 232 232 233 234 233 233 234 235 236 236 238 239 240 242 243 244 245 236 223 219 219 217 215 213 211 211 210 208 206 204 202 199 198 200 202 202 204 212 220 223 224
239 241 242 241 239 239 240 240 240 240 240 240 240 241 243 244 244 242 241 241 242 242 242 245 246 239 233 233 234 232 229 229 229 230 231 232 231 231 231 230 232 233 234 235 238 240 241 241 242 244 239 228 221 220 219 218 215 213 213 212 211 209 206 203 200 197 197 197 198 201 209 217 219 220
237 238 240 239 238 238 238 238 238 238 238 238 238 239 241 242 241 239 239 239 240 240 240 242 243 237 232 231 232 231 228 227 228 228 229 230 229 228 228 226 225 227 229 232 236 239 240 240 241 242 240 231 224 222 221 220 218 216 215 213 213 212 209 206 203 201 199 198 196 198 206 213 217 219
234 235 237 237 237 237 237 236 236 236 236 236 237 238 240 239 237 237 238 238 238 238 238 240 241 236 231 230 231 230 227 225 226 227 227 227 226 225 224 222 221 223 227 231 236 239 240 240 240 240 241 235 227 223 223 223 221 219 217 216 215 214 212 209 207 206 205 201 197 196 203 210 215 219
231 233 234 235 235 235 235 235 234 234 234 234 235 237 237 236 236 237 237 236 236 236 236 238 239 234 230 229 230 229 226 224 224 225 225 225 224 223 221 220 221 224 228 233 237 239 240 241 241 241 241 238 231 226 225 225 224 222 221 220 218 216 214 213 211 210 208 204 199 196 199 206 210 214
228 230 231 232 233 233 233 233 232 232 232 232 234 235 234 235 237 237 235 235 234 233 233 235 235 232 228 227 228 228 225 223 223 224 224 223 222 221 221 221 223 226 230 234 238 239 240 241 242 243 243 242 236 230 228 227 226 225 224 224 221 219 217 215 214 212 209 206 202 198 198 202 207 211
225 227 228 230 230 231 231 231 231 230 231 231 232 233 234 235 236 235 233 233 232 231 231 232 233 230 227 226 227 227 225 223 222 223 223 223 222 220 221 222 225 228 232 236 238 239 239 239 241 242 243 243 240 235 231 229 228 226 226 225 223 221 220 219 217 214 211 209 207 204 202 203 207 211
223 225 226 228 228 228 229 229 229 229 229 229 230 232 233 234 234 232 230 230 230 228 229 230 230 228 225 224 225 226 224 223 222 223 223 222 222 221 221 223 226 230 233 236 238 239 238 237 238 239 241 242 241 238 234 231 229 229 227 225 224 222 221 221 220 216 213 213 213 211 208 207 209 213
222 223 225 226 226 226 227 228 228 228 228 228 229 231 232 234 232 229 228 228 228 227 227 227 228 226 224 223 224 224 223 222 223 223 222 222 222 221 221 223 226 230 233 236 238 238 236 234 234 235 237 239 239 239 238 234 231 229 229 227 225 222 222 222 221 219 217 217 217 216 213 211 212 214
221 222 224 225 224 225 226 226 227 227 227 228 229 230 232 233 230 226 225 226 226 224 225 226 226 225 224 223 223 222 222 222 222 223 223 222 222 221 220 222 225 229 232 235 235 233 231 230 227 224 225 229 232 235 237 237 233 230 229 229 227 224 223 222 222 222 221 220 220 219 217 215 215 216
219 221 222 224 224 224 225 225 226 227 227 228 229 230 232 232 228 223 224 225 223 223 223 224 225 225 223 222 221 220 220 221 222 223 223 222 222 221 219 221 225 228 230 231 230 229 226 222 217 213 213 217 224 230 235 238 237 232 230 229 229 228 226 223 222 223 223 223 222 222 220 219 218 218
218 219 221 223 223 224 224 225 226 226 226 228 229 229 231 230 225 222 223 224 223 222 223 224 225 224 222 220 219 218 218 220 221 223 223 223 223 221 219 220 224 228 229 228 226 223 221 217 212 210 212 216 221 228 235 240 241 236 231 229 230 230 229 226 224 223 223 223 224 224 223 222 222 222
217 219 220 221 222 223 224 224 225 226 226 227 227 228 229 227 222 219 221 222 222 222 223 224 224 222 220 219 217 217 217 219 220 222 223 223 223 222 220 220 223 226 227 225 222 219 217 215 213 213 215 219 223 228 235 241 243 241 235 230 230 231 231 229 227 225 224 224 224 224 224 225 226 226
216 218 219 220 221 222 222 223 224 224 225 226 225 225 226 224 220 218 219 220 220 221 221 222 221 220 218 217 216 215 216 218 220 222 223 222 222 221 220 220 222 224 224 222 219 216 215 215 216 218 219 223 228 230 234 240 243 245 241 234 230 230 230 231 230 228 227 226 226 225 225 226 227 228
214 217 218 220 221 222 222 222 223 224 224 224 223 223 222 220 217 217 218 218 218 219 219 220 219 218 216 215 214 213 215 217 219 221 221 220 219 220 220 220 221 221 221 220 217 215 214 215 218 220 223 227 231 234 237 240 243 246 247 242 235 231 230 230 231 230 229 229 228 227 227 227 228 228
214 215 217 218 220 221 222 222 223 224 224 223 222 220 218 215 214 214 215 216 217 218 218 217 216 215 214 213 211 211 214 216 218 219 218 216 216 217 218 218 219 218 218 218 217 215 214 216 218 222 226 229 232 237 240 243 245 247 248 249 244 237 232 230 230 231 231 231 231 230 229 228 228 228
216 216 217 219 220 221 221 222 223 223 223 222 220 217 214 212 211 211 211 212 215 216 215 214 213 213 212 210 209 210 213 215 216 217 215 213 214 216 216 216 216 216 216 216 216 217 217 217 219 222 226 230 233 236 241 245 248 250 248 247 247 244 239 234 232 231 231 231 232 231 231 230 229 229
215 217 218 221 222 222 222 222 222 221 221 220 218 215 211 209 209 208 208 209 212 214 213 211 210 210 209 208 207 209 211 212 213 212 211 211 211 213 215 215 214 215 215 214 215 218 219 220 221 223 226 230 232 235 240 244 248 248 248 246 245 244 244 241 237 234 232 231 231 231 231 231 230 230
214 215 217 220 222 221 220 221 221 220 218 217 216 213 210 208 207 207 207 207 209 210 210 208 208 208 207 205 206 208 209 210 210 209 208 209 211 212 214 214 214 214 214 213 214 217 220 222 223 225 227 230 232 235 238 242 243 243 243 243 244 243 242 242 242 240 236 234 233 232 231 231 231 231
212 212 214 218 220 219 218 217 217 217 216 214 213 211 209 207 206 206 206 207 207 207 206 205 205 205 204 204 205 206 207 207 206 206 207 208 209 211 212 214 215 214 213 212 213 216 219 222 225 228 230 233 235 236 237 238 239 238 238 238 240 242 242 240 241 243 242 239 237 235 234 232 232 232
208 208 211 215 218 217 216 215 215 214 213 212 210 209 208 206 205 205 206 206 205 204 203 203 202 202 202 203 203 204 205 204 203 204 205 206 208 209 211 213 215 216 216 214 214 216 218 222 225 229 232 235 236 237 237 236 236 236 236 235 236 239 242 242 242 244 245 245 243 240 238 236 234 233
205 207 209 213 216 217 215 213 213 213 212 210 209 208 206 204 204 205 206 206 205 202 200 200 200 200 201 202 202 202 202 202 202 201 203 205 206 208 210 213 215 218 219 219 219 219 220 222 223 226 228 231 233 236 238 238 236 235 236 236 236 237 241 243 244 246 247 248 247 245 242 240 238 236
204 207 210 213 216 216 214 212 211 210 209 208 207 205 203 202 203 205 206 207 205 202 198 197 198 199 200 200 200 201 201 201 200 200 201 203 205 207 209 212 214 217 219 221 222 223 224 224 225 225 227 228 230 233 236 239 240 239 239 239 239 239 241 243 245 247 248 248 247 246 245 243 242 240
206 209 212 214 214 214 213 211 209 207 206 205 203 201 200 201 202 205 207 207 205 200 197 196 197 199 199 199 199 200 200 200 199 199 200 202 204 206 207 210 212 215 217 219 221 223 226 228 229 230 229 229 230 232 235 239 241 241 242 243 244 243 243 244 246 247 247 246 246 245 245 244 244 243
207 211 213 214 213 212 210 209 207 204 202 199 198 198 198 200 202 205 206 207 204 199 196 195 196 198 198 198 199 200 200 200 199 199 200 202 203 204 206 208 211 214 216 217 219 221 224 227 231 233 234 234 234 235 236 237 238 240 241 243 245 245 245 246 248 248 247 246 246 245 245 244 243 242